Location: Newark
(51.3318°N, 0.0053°E)
Time: 17:13:09
(UTC+00:00)

M-CUBED/EXP-1 PRIME - Pass Details

Date: 06 July 2022
Orbit: 422 x 631 km, 101.7° (Epoch: 17 August)

Event Time Altitude Azimuth Distance (km) Brightness Sun altitude
Exits shadow 00:45:27 19° 135° (SE) 1,135 ? -15.4°
Maximum altitude 00:47:38 52° 64° (ENE) 578 ? -15.4°
Drops below altitude 10° 00:51:04 10° 348° (NNW) 1,659 ? -15.3°
Sets 00:53:14 0° 344° (NNW) 2,579 ? -15.2°
